When you browse on this site, cookies collect data to enhance your experience and personalize the content and advertising you see.
Visit our Privacy Policy to learn more. By continuing to use the site, you agree to this use of cookies and data.
  • în România
  • Lista ţărilor
  • Pe 7 zile
  • Temperatura apei
  • Hartă satelitară
  • Meteo pe hartă
  • Widget-uri
  • user-avatar
    Intrare

    Meteo pe oră la Kotovka

    Astăzi, 20 Iunie, Joi

    Timp Temperatura Precipitaţii Vânt Presiune Umiditate
    00:00 +18°C° 0 mm 1 m/s 741 mmHg 74%
    01:00 +18°C° 0 mm 1 m/s 741 mmHg 76%
    02:00 +16°C° 0 mm 1 m/s 741 mmHg 77%
    03:00 +16°C° 0 mm 1 m/s 741 mmHg 74%
    04:00 +18°C° 0 mm 1 m/s 741 mmHg 76%
    05:00 +18°C° 0 mm 1 m/s 741 mmHg 77%
    06:00 +17°C° 0 mm 0 m/s 742 mmHg 78%
    07:00 +19°C° 0 mm 0 m/s 742 mmHg 73%
    08:00 +20°C° 0 mm 0 m/s 742 mmHg 68%
    09:00 +22°C° 0 mm 0 m/s 742 mmHg 62%
    10:00 +25°C° 0 mm 1 m/s 742 mmHg 58%
    11:00 +26°C° 0 mm 1 m/s 742 mmHg 54%
    12:00 +27°C° 0 mm 1 m/s 742 mmHg 50%
    13:00 +27°C° 0 mm 1 m/s 742 mmHg 49%
    14:00 +27°C° 0 mm 1 m/s 742 mmHg 48%
    15:00 +26°C° 0 mm 0 m/s 741 mmHg 45%
    16:00 +26°C° 0 mm 0 m/s 741 mmHg 49%
    17:00 +26°C° 0 mm 0 m/s 741 mmHg 54%
    18:00 +26°C° 0 mm 0 m/s 741 mmHg 58%
    19:00 +24°C° 0 mm 0 m/s 741 mmHg 59%
    20:00 +23°C° 0 mm 1 m/s 741 mmHg 60%
    21:00 +21°C° 0 mm 1 m/s 741 mmHg 61%
    22:00 +21°C° 0 mm 1 m/s 741 mmHg 63%
    23:00 +20°C° 0 mm 1 m/s 741 mmHg 66%

    Mâine, 21 Iunie, Vineri

    Timp Temperatura Precipitaţii Vânt Presiune Umiditate
    00:00 +19°C° 0 mm 1 m/s 741 mmHg 68%
    01:00 +19°C° 0 mm 1 m/s 742 mmHg 70%
    02:00 +18°C° 0 mm 1 m/s 742 mmHg 72%
    03:00 +18°C° 0 mm 1 m/s 742 mmHg 74%
    04:00 +19°C° 0 mm 1 m/s 742 mmHg 75%
    05:00 +19°C° 0 mm 1 m/s 742 mmHg 77%
    06:00 +20°C° 0 mm 1 m/s 743 mmHg 78%
    07:00 +20°C° 0 mm 2 m/s 743 mmHg 75%
    08:00 +23°C° 0 mm 2 m/s 743 mmHg 71%
    09:00 +25°C° 0 mm 2 m/s 743 mmHg 67%
    10:00 +25°C° 0 mm 3 m/s 743 mmHg 64%
    11:00 +26°C° 0 mm 3 m/s 743 mmHg 61%
    12:00 +27°C° 0 mm 3 m/s 742 mmHg 57%
    13:00 +28°C° 0 mm 4 m/s 742 mmHg 57%
    14:00 +28°C° 0 mm 4 m/s 742 mmHg 57%
    15:00 +28°C° 0 mm 4 m/s 742 mmHg 57%
    16:00 +28°C° 0 mm 3 m/s 742 mmHg 61%
    17:00 +28°C° 0 mm 3 m/s 742 mmHg 65%
    18:00 +27°C° 0 mm 2 m/s 742 mmHg 69%
    19:00 +26°C° 0 mm 2 m/s 742 mmHg 71%
    20:00 +24°C° 0 mm 2 m/s 742 mmHg 73%
    21:00 +21°C° 0 mm 2 m/s 742 mmHg 75%
    22:00 +21°C° 0 mm 2 m/s 742 mmHg 75%
    23:00 +20°C° 0 mm 2 m/s 742 mmHg 76%

    Poimâine, 22 Iunie, Sâmbătă

    Timp Temperatura Precipitaţii Vânt Presiune Umiditate
    00:00 +20°C° 0 mm 2 m/s 742 mmHg 76%
    01:00 +19°C° 0 mm 3 m/s 742 mmHg 77%
    02:00 +19°C° 0 mm 3 m/s 742 mmHg 78%
    03:00 +19°C° 0 mm 3 m/s 742 mmHg 79%
    04:00 +19°C° 0 mm 3 m/s 742 mmHg 81%
    05:00 +19°C° 0 mm 3 m/s 742 mmHg 82%
    06:00 +20°C° 0 mm 3 m/s 742 mmHg 84%
    07:00 +21°C° 0 mm 3 m/s 742 mmHg 80%
    08:00 +23°C° 0 mm 4 m/s 742 mmHg 75%
    09:00 +25°C° 0 mm 4 m/s 742 mmHg 71%
    10:00 +26°C° 0 mm 4 m/s 742 mmHg 68%
    11:00 +27°C° 0 mm 4 m/s 742 mmHg 64%
    12:00 +28°C° 0 mm 5 m/s 742 mmHg 61%
    13:00 +28°C° 0 mm 5 m/s 742 mmHg 60%
    14:00 +29°C° 0 mm 5 m/s 742 mmHg 60%
    15:00 +29°C° 0 mm 5 m/s 742 mmHg 59%
    16:00 +28°C° 0 mm 4 m/s 742 mmHg 63%
    17:00 +28°C° 0 mm 4 m/s 741 mmHg 67%
    18:00 +28°C° 0 mm 3 m/s 741 mmHg 71%
    19:00 +26°C° 0 mm 3 m/s 741 mmHg 75%
    20:00 +25°C° 0 mm 3 m/s 742 mmHg 80%
    21:00 +22°C° 0 mm 3 m/s 742 mmHg 84%
    22:00 +21°C° 0 mm 3 m/s 742 mmHg 85%
    23:00 +21°C° 0 mm 3 m/s 742 mmHg 86%

    23 Iunie, Duminică

    Timp Temperatura Precipitaţii Vânt Presiune Umiditate
    00:00 +20°C° 0 mm 3 m/s 742 mmHg 86%
    01:00 +20°C° 0 mm 3 m/s 742 mmHg 88%
    02:00 +19°C° 0 mm 3 m/s 742 mmHg 89%
    03:00 +19°C° 0 mm 3 m/s 742 mmHg 90%
    04:00 +19°C° 0 mm 2 m/s 742 mmHg 89%
    05:00 +20°C° 0 mm 2 m/s 742 mmHg 87%
    06:00 +20°C° 0 mm 2 m/s 742 mmHg 86%
    07:00 +23°C° 0.1 mm 2 m/s 742 mmHg 82%
    08:00 +24°C° 0.1 mm 2 m/s 743 mmHg 77%
    09:00 +26°C° 0.1 mm 2 m/s 743 mmHg 72%
    10:00 +27°C° 0.2 mm 2 m/s 743 mmHg 67%
    11:00 +28°C° 0.2 mm 2 m/s 743 mmHg 62%
    12:00 +29°C° 0.2 mm 2 m/s 743 mmHg 57%
    13:00 +29°C° 0.3 mm 3 m/s 743 mmHg 58%
    14:00 +29°C° 0.3 mm 3 m/s 743 mmHg 59%
    15:00 +29°C° 0.3 mm 3 m/s 743 mmHg 60%
    16:00 +28°C° 1 mm 3 m/s 743 mmHg 65%
    17:00 +27°C° 1 mm 3 m/s 742 mmHg 70%
    18:00 +27°C° 1 mm 2 m/s 742 mmHg 76%
    19:00 +25°C° 0.1 mm 2 m/s 742 mmHg 79%
    20:00 +24°C° 0.1 mm 2 m/s 742 mmHg 83%
    21:00 +22°C° 0.1 mm 1 m/s 743 mmHg 87%
    22:00 +21°C° 0 mm 2 m/s 743 mmHg 89%
    23:00 +20°C° 0 mm 2 m/s 743 mmHg 91%

    24 Iunie, Luni

    Timp Temperatura Precipitaţii Vânt Presiune Umiditate
    00:00 +19°C° 0 mm 3 m/s 743 mmHg 94%
    01:00 +18°C° 0 mm 3 m/s 743 mmHg 92%
    02:00 +18°C° 0 mm 4 m/s 744 mmHg 90%
    03:00 +17°C° 0 mm 4 m/s 744 mmHg 88%
    04:00 +17°C° 0 mm 4 m/s 744 mmHg 86%
    05:00 +15°C° 0 mm 4 m/s 744 mmHg 84%
    06:00 +15°C° 0 mm 4 m/s 745 mmHg 82%
    07:00 +17°C° 0 mm 4 m/s 745 mmHg 76%
    08:00 +19°C° 0 mm 4 m/s 745 mmHg 71%
    09:00 +20°C° 0 mm 4 m/s 746 mmHg 66%
    10:00 +21°C° 0 mm 4 m/s 746 mmHg 64%
    11:00 +21°C° 0 mm 4 m/s 746 mmHg 61%
    12:00 +22°C° 0 mm 4 m/s 746 mmHg 59%
    13:00 +22°C° 0 mm 4 m/s 746 mmHg 58%
    14:00 +23°C° 0 mm 4 m/s 746 mmHg 57%
    15:00 +23°C° 0 mm 4 m/s 746 mmHg 56%
    16:00 +22°C° 0 mm 4 m/s 746 mmHg 59%
    17:00 +22°C° 0 mm 4 m/s 746 mmHg 62%
    18:00 +21°C° 0 mm 4 m/s 746 mmHg 65%
    19:00 +20°C° 0 mm 3 m/s 746 mmHg 68%
    20:00 +18°C° 0 mm 3 m/s 747 mmHg 71%
    21:00 +16°C° 0 mm 2 m/s 747 mmHg 74%
    22:00 +16°C° 0 mm 3 m/s 747 mmHg 73%
    23:00 +14°C° 0 mm 3 m/s 747 mmHg 73%

    25 Iunie, Marţi

    Timp Temperatura Precipitaţii Vânt Presiune Umiditate
    00:00 +13°C° 0 mm 3 m/s 747 mmHg 72%
    01:00 +13°C° 0 mm 3 m/s 747 mmHg 74%
    02:00 +13°C° 0 mm 2 m/s 747 mmHg 76%
    03:00 +13°C° 0 mm 2 m/s 748 mmHg 79%
    04:00 +13°C° 0 mm 2 m/s 748 mmHg 78%
    05:00 +13°C° 0 mm 2 m/s 748 mmHg 77%
    06:00 +14°C° 0 mm 2 m/s 748 mmHg 76%
    07:00 +15°C° 0 mm 2 m/s 748 mmHg 73%
    08:00 +17°C° 0 mm 3 m/s 748 mmHg 69%
    09:00 +18°C° 0 mm 3 m/s 748 mmHg 66%
    10:00 +19°C° 0 mm 3 m/s 748 mmHg 62%
    11:00 +20°C° 0 mm 3 m/s 748 mmHg 59%
    12:00 +21°C° 0 mm 4 m/s 748 mmHg 56%
    13:00 +21°C° 0 mm 3 m/s 748 mmHg 55%
    14:00 +21°C° 0 mm 3 m/s 748 mmHg 55%
    15:00 +21°C° 0 mm 3 m/s 748 mmHg 55%
    16:00 +21°C° 0 mm 3 m/s 747 mmHg 57%
    17:00 +21°C° 0 mm 3 m/s 747 mmHg 59%
    18:00 +20°C° 0 mm 2 m/s 747 mmHg 61%
    19:00 +19°C° 0 mm 2 m/s 747 mmHg 66%
    20:00 +18°C° 0 mm 1 m/s 746 mmHg 71%
    21:00 +15°C° 0 mm 1 m/s 746 mmHg 76%
    22:00 +15°C° 0 mm 1 m/s 746 mmHg 77%
    23:00 +14°C° 0 mm 1 m/s 746 mmHg 78%
    Arată mai mult